FW9572 Weather Reports


time (UTC)temp
C
wind
direction
speed
KPH
gust
KPH
rain 1hr
cm
rain 24hr
cm
rain mn
cm
humidity
%
barometer
mb
20260906210040 32 360 0.0 1.6 0.00 0.00 0.00 40 1003.0
20260906204521 32 360 0.0 1.6 0.00 0.00 0.00 42 1003.3
20260906203027 32 360 0.0 1.6 0.00 0.00 0.00 40 1003.5
20260906201535 31 360 0.0 1.6 0.00 0.00 0.00 43 1003.6
20260906200017 31 360 0.0 1.6 0.00 0.00 0.00 42 1003.7
20260906194516 32 360 0.0 1.6 0.00 0.00 0.00 42 1003.9
20260906193022 32 360 0.0 0.0 0.00 0.00 0.00 41 1004.0
20260906191513 32 360 0.0 1.6 0.00 0.00 0.00 40 1004.2
20260906190010 32 360 0.0 0.0 0.00 0.00 0.00 40 1004.4
20260906184507 32 360 0.0 0.0 0.00 0.00 0.00 43 1004.6
20260906183004 31 360 0.0 0.0 0.00 0.00 0.00 42 1004.9
20260906181600 31 360 0.0 14.5 0.00 0.00 0.00 41 1005.1
20260906180117 31 360 0.0 0.0 0.00 0.00 0.00 42 1005.5
20260906174559 30 215 0.0 0.0 0.00 0.00 0.00 42 1005.7
20260906173056 30 161 0.0 0.0 0.00 0.00 0.00 44 1006.0
20260906171544 29 360 0.0 3.2 0.00 0.00 0.00 46 1006.3
20260906170040 28 360 0.0 0.0 0.00 0.00 0.00 48 1006.4
20260906164536 27 360 0.0 0.0 0.00 0.00 0.00 51 1006.6
20260906163033 27 360 0.0 0.0 0.00 0.00 0.00 51 1006.8
20260906161529 26 360 0.0 0.0 0.00 0.00 0.00 53 1007.1
20260906160025 25 360 0.0 0.0 0.00 0.00 0.00 55 1007.0
20260906154527 24 360 0.0 0.0 0.00 0.00 0.00 61 1007.1
20260906153031 23 360 0.0 0.0 0.00 0.00 0.00 63 1007.1
20260906151513 22 360 0.0 0.0 0.00 0.00 0.00 68 1007.3
20260906150015 21 360 0.0 0.0 0.00 0.00 0.00 70 1007.6
20260906144504 21 360 0.0 0.0 0.00 0.00 0.00 71 1007.7
20260906143100 20 360 0.0 0.0 0.00 0.00 0.00 74 1007.8
20260906141555 18 360 0.0 0.0 0.00 0.00 0.00 81 1007.9
20260906140050 17 176 0.0 0.0 0.00 0.00 0.00 87 1008.0
20260906134610 16 360 0.0 0.0 0.00 0.00 0.00 90 1008.2
20260906133052 15 360 0.0 1.6 0.00 0.00 0.00 89 1008.1
20260906131543 15 360 0.0 0.0 0.00 0.00 0.00 88 1008.1
20260906130042 15 360 0.0 0.0 0.00 0.00 0.00 87 1008.1
20260906124540 15 360 0.0 0.0 0.00 0.00 0.00 86 1008.1
20260906123051 16 212 0.0 0.0 0.00 0.00 0.00 86 1008.2
20260906121538 16 360 0.0 0.0 0.00 0.00 0.00 86 1007.9
20260906120032 16 179 0.0 0.0 0.00 0.00 0.00 87 1007.7
20260906114530 16 360 0.0 0.0 0.00 0.00 0.00 85 1007.6
20260906113032 16 360 0.0 0.0 0.00 0.00 0.00 85 1007.6
20260906111528 16 360 0.0 0.0 0.00 0.00 0.00 84 1007.5
20260906110024 17 360 0.0 0.0 0.00 0.00 0.00 84 1007.2
20260906104522 17 360 0.0 0.0 0.00 0.00 0.00 84 1007.1
20260906103020 17 178 0.0 0.0 0.00 0.00 0.00 83 1007.1
20260906101527 17 360 0.0 0.0 0.00 0.00 0.00 82 1007.0
20260906100020 17 360 0.0 0.0 0.00 0.00 0.00 82 1007.1
20260906094516 17 360 0.0 0.0 0.00 0.00 0.00 81 1006.9
20260906093025 17 360 0.0 0.0 0.00 0.00 0.00 81 1006.8
20260906091515 17 360 0.0 0.0 0.00 0.00 0.00 81 1006.7
20260906090032 17 360 0.0 0.0 0.00 0.00 0.00 81 1006.6
20260906084512 18 360 0.0 0.0 0.00 0.00 0.00 81 1006.3
20260906083008 18 360 0.0 0.0 0.00 0.00 0.00 79 1005.9
20260906081508 18 360 0.0 0.0 0.00 0.00 0.00 79 1006.0
20260906080002 18 360 0.0 0.0 0.00 0.00 0.00 78 1006.2
20260906074610 19 360 0.0 0.0 0.00 0.00 0.00 78 1006.3
20260906073111 19 360 0.0 0.0 0.00 0.00 0.00 78 1006.6
20260906071557 19 360 0.0 0.0 0.00 0.00 0.00 77 1006.7
20260906070056 19 360 0.0 0.0 0.00 0.00 0.00 77 1006.5
20260906064555 19 360 0.0 0.0 0.00 0.00 0.00 76 1006.8
20260906063053 20 360 0.0 0.0 0.00 0.00 0.00 75 1006.6
20260906061552 20 360 0.0 0.0 0.00 0.00 0.00 75 1006.8
20260906060050 20 360 0.0 0.0 0.00 0.00 0.00 75 1006.4
20260906054549 20 360 0.0 0.0 0.00 0.00 0.00 75 1006.3
20260906053048 20 360 0.0 0.0 0.00 0.00 0.00 74 1005.9
20260906051558 21 360 0.0 0.0 0.00 0.00 0.00 72 1005.8
20260906050101 21 360 0.0 3.2 0.00 0.00 0.00 70 1005.7
20260906044551 21 360 0.0 0.0 0.00 0.00 0.00 69 1005.3
20260906043147 21 360 0.0 0.0 0.00 0.00 0.00 70 1005.7
20260906041545 21 360 0.0 0.0 0.00 0.00 0.00 67 1005.9
20260906040045 21 360 0.0 0.0 0.00 0.00 0.00 70 1006.1
20260906034606 20 360 0.0 0.0 0.00 0.00 0.00 79 1006.1
20260906033045 20 360 0.0 0.0 0.00 0.00 0.00 81 1006.3
20260906031548 20 360 0.0 0.0 0.00 0.00 0.00 81 1006.0
20260906030043 20 360 0.0 0.0 0.00 0.00 0.00 80 1005.6
20260906024542 20 360 0.0 1.6 0.00 0.00 0.00 80 1005.4
20260906023041 20 360 0.0 0.0 0.00 0.00 0.00 79 1005.4
20260906021540 21 360 0.0 1.6 0.00 0.00 0.00 76 1005.5
20260906020039 21 360 0.0 3.2 0.00 0.00 0.00 69 1006.0
20260906014539 22 360 0.0 1.6 0.00 0.00 0.00 66 1005.8
20260906013055 22 360 0.0 3.2 0.00 0.00 0.00 66 1005.5
20260906011544 23 360 0.0 1.6 0.00 0.00 0.00 66 1005.2
20260906010033 25 360 0.0 22.5 0.00 0.00 0.00 61 1004.2
20260906004533 25 360 0.0 24.1 0.00 0.00 0.00 59 1004.2
20260906003036 26 360 0.0 0.0 0.00 0.00 0.00 57 1004.1
20260906001532 27 360 0.0 0.0 0.00 0.00 0.00 55 1004.1
20260906000032 28 360 0.0 30.6 0.00 0.00 0.00 50 1003.9
20260905234530 31 360 0.0 0.0 0.00 0.00 0.00 43 1002.7
20260905233038 34 360 0.0 0.0 0.00 0.00 0.00 38 1001.6
20260905231530 35 360 0.0 0.0 0.00 0.00 0.00 35 1001.6
20260905230027 36 360 0.0 0.0 0.00 0.00 0.00 25 1001.7
20260905224526 36 360 0.0 0.0 0.00 0.00 0.00 26 1001.4
20260905223024 36 360 0.0 0.0 0.00 0.00 0.00 24 1001.4
20260905221521 37 360 0.0 0.0 0.00 0.00 0.00 24 1001.8
20260905220019 36 360 0.0 0.0 0.00 0.00 0.00 25 1001.9
20260905214517 36 360 0.0 0.0 0.00 0.00 0.00 26 1002.1
20260905213017 36 153 0.0 0.0 0.00 0.00 0.00 26 1002.4
20260905211515 35 360 0.0 0.0 0.00 0.00 0.00 27 1002.6